PLATFORM,ARGOS_ID,DATE (YYYY/MM/DD HH:MI:SS),LATITUDE (degree_north),LONGITUDE (degree_east),DEPH (meter),EWCT (meter/second),NSCT (meter/second),WSTN_MODEL (newton/m2),WSPN_MODEL (meter/second),CO00 (none),WSTE_MODEL (newton/m2),WSPE_MODEL (meter/second),TEMP LEVEL0 (degree_Celsius),EWCT LEVEL1 (meter/second),NSCT LEVEL1 (meter/second),QC,SVP_RCBN_Number,SVP_GNRL_ImmPercent,SVP_GNRL_BattVolt
61939,72504,2007/07/17 06:00:10,43.6068,7.4590,,,,,,,,,23.8,,,0011199999999199,1,0,12.5
61939,72504,2007/07/17 13:00:22,43.5942,7.4172,,,,,,,,,22.84,-0.133503,-0.055571,0011199999999100,1,93,12.5
61939,72504,2007/07/17 16:00:22,43.5834,7.3977,,,,,,,,,23,-0.145418,-0.111195,0011199999999100,1,79,12.4
61939,72504,2007/07/17 17:00:40,43.5779,7.3892,,,,,,,,,23,-0.189242,-0.169036,0011199999999100,1,55,12.4
61939,72504,2007/07/17 21:00:10,43.5579,7.3444,,,,,,,,,22.92,-0.251177,-0.15476,0011199999999100,1,7,12.4
61939,72504,2007/07/18 19:00:10,43.4440,7.1596,,,,,,,,,25.16,-0.188199,-0.159913,0011199999999100,1,0,12.4
61939,72504,2007/07/18 20:00:40,43.4391,7.1529,,,,,,,,,24.92,-0.149017,-0.150098,0011199999999100,1,3,12.4
61939,72504,2007/07/18 21:00:10,43.4331,7.1474,,,,,,,,,24.76,-0.124394,-0.186882,0011199999999100,5,0,12.4
61939,72504,2007/07/18 22:00:10,43.4264,7.1413,,,,,,,,,24.28,-0.136829,-0.206946,0011199999999100,4,0,12.4
61939,72504,2007/07/18 23:00:10,43.4186,7.1357,,,,,,,,,24.36,-0.125629,-0.240922,0011199999999100,6,4,12.4
61939,72504,2007/07/19 00:00:40,43.4103,7.1286,,,,,,,,,24.44,-0.157984,-0.254247,0011199999999100,6,1,12.4
61939,72504,2007/07/19 01:00:16,43.4021,7.1216,,,,,,,,,23.72,-0.158133,-0.254977,0011199999999100,3,0,12.4
61939,72504,2007/07/19 02:00:08,43.3936,7.1131,,,,,,,,,23.8,-0.191189,-0.263128,0011199999999100,3,0,12.4
61939,72504,2007/07/19 03:00:22,43.3860,7.1043,,,,,,,,,23.4,-0.196758,-0.233835,0011199999999100,5,0,12.4
61939,72504,2007/07/19 04:00:40,43.3789,7.0949,,,,,,,,,23.16,-0.209967,-0.21821,0011199999999100,4,0,12.4
61939,72504,2007/07/19 05:00:10,43.3719,7.0852,,,,,,,,,23.32,-0.219606,-0.218029,0011199999999100,4,0,12.4
61939,72504,2007/07/19 06:00:10,43.3647,7.0761,,,,,,,,,23.32,-0.20433,-0.22239,0011199999999100,1,0,12.4
61939,72504,2007/07/19 07:00:10,43.3572,7.0673,,,,,,,,,23.48,-0.197617,-0.231656,0011199999999100,3,0,12.4
61939,72504,2007/07/19 08:00:40,43.3495,7.0603,,,,,,,,,23.72,-0.155916,-0.235868,0011199999999100,4,0,12.4
61939,72504,2007/07/19 09:00:16,43.3432,7.0525,,,,,,,,,23.88,-0.176379,-0.195897,0011199999999100,6,0,12.3
61939,72504,2007/07/19 10:00:16,43.3363,7.0436,,,,,,,,,23.8,-0.199933,-0.213124,0011199999999100,6,0,12.3
61939,72504,2007/07/19 11:00:40,43.3296,7.0363,,,,,,,,,23.8,-0.162922,-0.205576,0011199999999100,5,11,12.4
61939,72504,2007/07/19 12:00:16,43.3219,7.0293,,,,,,,,,23.8,-0.158342,-0.23943,0011199999999100,3,22,12.4
61939,72504,2007/07/19 13:00:15,43.3138,7.0209,,,,,,,,,23.96,-0.188821,-0.250258,0011199999999100,5,17,12.4
61939,72504,2007/07/19 14:00:35,43.3058,7.0136,,,,,,,,,23.96,-0.163164,-0.245735,0011199999999100,5,6,12.4
61939,72504,2007/07/19 15:00:10,43.2977,7.0061,,,,,,,,,24.28,-0.169767,-0.251938,0011199999999100,6,0,12.4
61939,72504,2007/07/19 16:00:10,43.2891,6.9985,,,,,,,,,24.52,-0.170859,-0.265632,0011199999999100,3,0,12.4
61939,72504,2007/07/19 17:00:40,43.2806,6.9912,,,,,,,,,24.28,-0.162782,-0.260374,0011199999999100,3,0,12.4
61939,72504,2007/07/19 18:00:16,43.2722,6.9843,,,,,,,,,24.28,-0.156207,-0.261196,0011199999999100,3,1,12.4
61939,72504,2007/07/19 19:00:17,43.2640,6.9782,,,,,,,,,24.04,-0.137156,-0.253207,0011199999999100,1,0,12.4
61939,72504,2007/07/19 20:00:40,43.2554,6.9723,,,,,,,,,24.04,-0.131872,-0.263946,0011199999999100,5,0,12.4
61939,72504,2007/07/19 21:00:10,43.2464,6.9651,,,,,,,,,23.88,-0.163341,-0.280323,0011199999999100,1,0,12.4
61939,72504,2007/07/19 22:00:22,43.2375,6.9581,,,,,,,,,23.8,-0.15698,-0.273985,0011199999999100,5,0,12.4
61939,72504,2007/07/19 23:00:10,43.2280,6.9497,,,,,,,,,23.8,-0.189665,-0.294412,0011199999999100,9,0,12.4
61939,72504,2007/07/20 00:00:40,43.2185,6.9420,,,,,,,,,23.8,-0.171875,-0.291006,0011199999999100,6,0,12.4
61939,72504,2007/07/20 01:00:16,43.2084,6.9348,,,,,,,,,23.8,-0.163167,-0.314057,0011199999999100,7,0,12.4
61939,72504,2007/07/20 02:00:17,43.1981,6.9264,,,,,,,,,23.8,-0.189072,-0.318053,0011199999999100,6,0,12.4
61939,72504,2007/07/20 03:00:22,43.1886,6.9177,,,,,,,,,23.72,-0.195639,-0.293024,0011199999999100,1,0,12.4
61939,72504,2007/07/20 04:00:40,43.1785,6.9091,,,,,,,,,23.48,-0.192726,-0.310411,0011199999999100,3,0,12.4
61939,72504,2007/07/20 05:00:10,43.1675,6.9005,,,,,,,,,23.32,-0.195351,-0.342617,0011199999999100,4,0,12.4
61939,72504,2007/07/20 06:00:10,43.1572,6.8914,,,,,,,,,23.16,-0.205022,-0.318141,0011199999999100,4,4,12.4
61939,72504,2007/07/20 07:00:40,43.1469,6.8816,,,,,,,,,23.08,-0.219005,-0.315512,0011199999999100,4,19,12.4
61939,72504,2007/07/20 08:00:16,43.1375,6.8705,,,,,,,,,23.16,-0.251843,-0.292291,0011199999999100,3,15,12.4
61939,72504,2007/07/20 09:00:16,43.1282,6.8613,,,,,,,,,23.88,-0.207375,-0.287254,0011199999999100,5,0,12.4
61939,72504,2007/07/20 10:00:40,43.1195,6.8522,,,,,,,,,24.68,-0.203793,-0.266941,0011199999999100,8,0,12.4
61939,72504,2007/07/20 11:00:10,43.1109,6.8432,,,,,,,,,24.36,-0.204631,-0.267865,0011199999999100,5,0,12.3
61939,72504,2007/07/20 12:00:10,43.1022,6.8348,,,,,,,,,24.04,-0.189424,-0.268721,0011199999999100,3,20,12.2
61939,72504,2007/07/20 13:00:10,43.0933,6.8267,,,,,,,,,23.96,-0.182685,-0.274899,0011199999999100,6,55,12.4
61939,72504,2007/07/20 14:00:40,43.0841,6.8183,,,,,,,,,23.96,-0.187913,-0.281816,0011199999999100,6,82,12.4
61939,72504,2007/07/20 15:00:07,43.0747,6.8109,,,,,,,,,23.96,-0.168492,-0.293028,0011199999999100,1,84,12.4
61939,72504,2007/07/20 16:00:40,43.0652,6.8017,,,,,,,,,23.88,-0.205703,-0.290766,0011199999999100,1,100,12.4
61939,72504,2007/07/20 17:00:10,43.0563,6.7924,,,,,,,,,23.88,-0.21164,-0.277209,0011199999999100,1,100,12.4
61939,72504,2007/07/20 18:00:11,43.0472,6.7825,,,,,,,,,23.8,-0.223387,-0.280998,0011199999999100,1,100,12.4
61939,72504,2007/07/20 19:01:09,43.0389,6.7728,,,,,,,,,23.64,-0.215494,-0.252301,0011199999999100,1,100,12.4
61939,72504,2007/07/20 20:00:18,43.0310,6.7645,,,,,,,,,23.48,-0.19008,-0.247518,0011199999999100,1,100,12.4
61939,72504,2007/07/20 21:00:15,43.0223,6.7564,,,,,,,,,23.24,-0.18305,-0.268945,0011199999999100,4,100,12.4
61939,72504,2007/07/20 22:00:40,43.0136,6.7466,,,,,,,,,23.16,-0.219788,-0.266868,0011199999999100,4,100,12.4
61939,72504,2007/07/20 23:00:10,43.0062,6.7383,,,,,,,,,23,-0.189039,-0.230488,0011199999999100,1,100,12.4
61939,72504,2007/07/21 00:01:04,42.9979,6.7293,,,,,,,,,23,-0.200296,-0.252577,0011199999999100,3,100,12.4
61939,72504,2007/07/21 01:00:16,42.9905,6.7195,,,,,,,,,23,-0.224392,-0.231656,0011199999999100,3,100,12.4
61939,72504,2007/07/21 02:00:11,42.9830,6.7093,,,,,,,,,22.84,-0.230785,-0.231978,0011199999999100,1,100,12.4
61939,72504,2007/07/21 03:00:16,42.9754,6.6988,,,,,,,,,22.84,-0.236943,-0.234419,0011199999999100,3,100,12.4
61939,72504,2007/07/21 04:00:39,42.9681,6.6885,,,,,,,,,22.84,-0.231303,-0.224047,0011199999999100,4,100,12.4
61939,72504,2007/07/21 05:00:10,42.9608,6.6778,,,,,,,,,23,-0.243813,-0.22731,0011199999999100,5,100,12.4
61939,72504,2007/07/21 06:00:05,42.9541,6.6657,,,,,,,,,23.08,-0.273905,-0.207234,0011199999999100,5,100,12.4
61939,72504,2007/07/21 07:01:04,42.9485,6.6531,,,,,,,,,23.24,-0.280262,-0.170181,0011199999999100,3,100,12.4
61939,72504,2007/07/21 08:00:16,42.9433,6.6417,,,,,,,,,23.32,-0.261232,-0.162785,0011199999999100,1,100,12.4
61939,72504,2007/07/21 09:00:22,42.9382,6.6302,,,,,,,,,23.56,-0.259599,-0.157264,0011199999999100,1,100,12.4
61939,72504,2007/07/21 10:00:40,42.9338,6.6180,,,,,,,,,23.8,-0.274508,-0.135229,0011199999999100,3,100,12.4
61939,72504,2007/07/21 11:00:17,42.9296,6.6060,,,,,,,,,24.44,-0.273122,-0.130562,0011199999999100,5,100,12.3
61939,72504,2007/07/21 12:00:10,42.9247,6.5946,,,,,,,,,24.44,-0.25833,-0.151644,0011199999999100,3,100,12.3
61939,72504,2007/07/21 13:00:10,42.9205,6.5826,,,,,,,,,23.8,-0.271417,-0.129727,0011199999999100,5,100,12.3
61939,72504,2007/07/21 14:00:40,42.9166,6.5720,,,,,,,,,23.64,-0.237786,-0.119466,0011199999999100,5,100,12.3
61939,72504,2007/07/21 15:01:05,42.9136,6.5616,,,,,,,,,23.56,-0.233635,-0.092023,0011199999999100,1,100,12.3
61939,72504,2007/07/21 16:00:16,42.9109,6.5519,,,,,,,,,23.64,-0.22246,-0.084547,0011199999999100,3,100,12.4
61939,72504,2007/07/21 17:00:39,42.9070,6.5434,,,,,,,,,23.4,-0.191076,-0.119696,0011199999999100,1,100,12.4
61939,72504,2007/07/21 18:00:15,42.9017,6.5356,,,,,,,,,23.32,-0.177658,-0.164802,0011199999999100,3,100,12.4
61939,72504,2007/07/21 19:00:40,42.8960,6.5270,,,,,,,,,23.24,-0.193249,-0.174844,0011199999999100,1,100,12.4
61939,72504,2007/07/21 20:00:11,42.8901,6.5173,,,,,,,,,23.08,-0.221283,-0.183716,0011199999999100,1,100,12.4
61939,72504,2007/07/21 21:00:16,42.8854,6.5073,,,,,,,,,23,-0.225995,-0.14497,0011199999999100,1,100,12.4
61939,72504,2007/07/21 22:01:34,42.8804,6.4954,,,,,,,,,23.16,-0.263617,-0.151162,0011199999999100,4,100,12.4
61939,72504,2007/07/21 23:00:16,42.8763,6.4836,,,,,,,,,23,-0.273,-0.129443,0011199999999100,5,100,12.4
61939,72504,2007/07/22 00:00:19,42.8727,6.4711,,,,,,,,,23.16,-0.282711,-0.111102,0011199999999100,1,100,12.4
61939,72504,2007/07/22 01:01:35,42.8699,6.4599,,,,,,,,,23.08,-0.248292,-0.084697,0011199999999100,1,100,12.4
61939,72504,2007/07/22 02:00:18,42.8672,6.4489,,,,,,,,,23,-0.25446,-0.085219,0011199999999100,5,100,12.3
61939,72504,2007/07/22 03:00:30,42.8651,6.4378,,,,,,,,,22.84,-0.250456,-0.064648,0011199999999100,1,100,12.3
61939,72504,2007/07/22 04:01:11,42.8631,6.4269,,,,,,,,,22.84,-0.243993,-0.061079,0011199999999100,5,100,12.3
61939,72504,2007/07/22 05:00:33,42.8616,6.4171,,,,,,,,,22.76,-0.224241,-0.046825,0011199999999100,3,100,12.3
61939,72504,2007/07/22 06:01:34,42.8601,6.4076,,,,,,,,,22.76,-0.211503,-0.045559,0011199999999100,6,100,12.3
61939,72504,2007/07/22 07:00:11,42.8583,6.3986,,,,,,,,,22.76,-0.208581,-0.05691,0011199999999100,3,100,12.3
61939,72504,2007/07/22 08:00:22,42.8561,6.3887,,,,,,,,,22.68,-0.223474,-0.067745,0011199999999100,1,100,12.3
61939,72504,2007/07/22 10:02:10,42.8503,6.3690,,,,,,,,,22.76,-0.219743,-0.08825,0011199999999100,5,100,12.3
61939,72504,2007/07/22 11:00:16,42.8477,6.3589,,,,,,,,,22.84,-0.236195,-0.082934,0011199999999100,3,100,12.3
61939,72504,2007/07/22 12:00:05,42.8455,6.3478,,,,,,,,,22.84,-0.252141,-0.068161,0011199999999100,4,100,12.3
61939,72504,2007/07/22 13:00:11,42.8435,6.3370,,,,,,,,,22.92,-0.244178,-0.061672,0011199999999100,4,100,12.3
61939,72504,2007/07/22 14:00:40,42.8425,6.3255,,,,,,,,,23,-0.258363,-0.030641,0011199999999100,5,100,12.3
61939,72504,2007/07/22 15:00:10,42.8418,6.3142,,,,,,,,,23,-0.258069,-0.021803,0011199999999100,1,100,12.3
61939,72504,2007/07/22 16:00:22,42.8423,6.3033,,,,,,,,,23,-0.246039,0.015392,0011199999999100,1,100,12.3
61939,72504,2007/07/22 17:00:37,42.8431,6.2936,,,,,,,,,23,-0.218768,0.024607,0011199999999100,1,100,12.2
61939,72504,2007/07/22 19:01:05,42.8441,6.2753,,,,,,,,,23,-0.206418,0.015384,0011199999999100,1,100,12.3
61939,72504,2007/07/22 20:00:12,42.8440,6.2660,,,,,,,,,23,-0.213763,-0.003135,0011199999999100,3,100,12.3
61939,72504,2007/07/22 21:00:10,42.8427,6.2566,,,,,,,,,22.92,-0.213002,-0.040176,0011199999999100,1,100,12.3
61939,72504,2007/07/22 22:00:40,42.8434,6.2465,,,,,,,,,22.92,-0.226847,0.021443,0011199999999100,3,100,12.3
61939,72504,2007/07/22 23:00:40,42.8431,6.2366,,,,,,,,,22.92,-0.224207,-0.009266,0011199999999100,6,100,12.3
61939,72504,2007/07/23 00:00:11,42.8431,6.2270,,,,,,,,,22.92,-0.219179,0,0011199999999100,3,100,12.3
61939,72504,2007/07/23 01:00:10,42.8429,6.2180,,,,,,,,,22.84,-0.203882,-0.006179,0011199999999100,1,100,12.3
61939,72504,2007/07/23 02:00:39,42.8420,6.2090,,,,,,,,,22.92,-0.202199,-0.027577,0011199999999100,1,65,12.3
61939,72504,2007/07/23 03:00:11,42.8416,6.2003,,,,,,,,,22.92,-0.19858,-0.012452,0011199999999100,6,7,12.3
61939,72504,2007/07/23 04:00:10,42.8397,6.1909,,,,,,,,,22.92,-0.212952,-0.058703,0011199999999100,7,6,12.3
61939,72504,2007/07/23 05:00:35,42.8391,6.1809,,,,,,,,,22.84,-0.224924,-0.018405,0011199999999100,4,1,12.3
61939,72504,2007/07/23 06:00:11,42.8386,6.1704,,,,,,,,,22.84,-0.239409,-0.015547,0011199999999100,4,11,12.3
61939,72504,2007/07/23 07:00:16,42.8385,6.1596,,,,,,,,,22.92,-0.244269,-0.003084,0011199999999100,1,15,12.3
61939,72504,2007/07/23 08:00:40,42.8390,6.1494,,,,,,,,,22.92,-0.229489,0.015341,0011199999999100,1,73,12.3
61939,72504,2007/07/23 09:00:16,42.8389,6.1403,,,,,,,,,23,-0.207487,-0.003109,0011199999999100,4,96,12.3
61939,72504,2007/07/23 10:00:23,42.8392,6.1311,,,,,,,,,23.08,-0.207964,0.009248,0011199999999100,4,100,12.3
61939,72504,2007/07/23 11:00:40,42.8394,6.1209,,,,,,,,,23.16,-0.229931,0.006148,0011199999999100,1,96,12.3
61939,72504,2007/07/23 12:00:11,42.8394,6.1121,,,,,,,,,23.24,-0.200927,0,0011199999999100,1,98,12.3
61939,72504,2007/07/23 13:00:10,42.8394,6.1024,,,,,,,,,23.4,-0.219753,0,0011199999999100,1,84,12.3
61939,72504,2007/07/23 14:00:40,42.8391,6.0922,,,,,,,,,23.48,-0.229107,-0.00919,0011199999999100,3,96,12.3
61939,72504,2007/07/23 15:00:06,42.8391,6.0820,,,,,,,,,23.64,-0.23322,0,0011199999999100,1,100,12.3
61939,72504,2007/07/23 16:00:22,42.8386,6.0721,,,,,,,,,23.56,-0.223231,-0.015375,0011199999999100,1,100,12.3
61939,72504,2007/07/23 17:00:40,42.8387,6.0620,,,,,,,,,23.48,-0.227616,0.003073,0011199999999100,1,100,12.3
61939,72504,2007/07/23 18:00:11,42.8385,6.0523,,,,,,,,,23.4,-0.221479,-0.006228,0011199999999100,4,100,12.3
61939,72504,2007/07/23 19:00:10,42.8382,6.0429,,,,,,,,,23.32,-0.21296,-0.009269,0011199999999100,1,100,12.2
61939,72504,2007/07/23 20:00:40,42.8383,6.0338,,,,,,,,,23.32,-0.204403,0.003063,0011199999999100,1,100,12.3
61939,72504,2007/07/23 21:00:10,42.8381,6.0243,,,,,,,,,23.4,-0.216974,-0.006229,0011199999999100,1,98,12.3
61939,72504,2007/07/23 22:00:16,42.8380,6.0156,,,,,,,,,23.32,-0.19672,-0.003084,0011199999999100,1,100,12.3
61939,72504,2007/07/23 23:00:39,42.8383,6.0069,,,,,,,,,23.32,-0.195796,0.009207,0011199999999100,3,100,12.3
61939,72504,2007/07/24 00:00:16,42.8382,5.9974,,,,,,,,,23.32,-0.216549,-0.003109,0011199999999100,5,100,12.3
61939,72504,2007/07/24 01:00:15,42.8380,5.9887,,,,,,,,,23.24,-0.197102,-0.006179,0011199999999100,1,100,12.3
61939,72504,2007/07/24 02:01:10,42.8373,5.9794,,,,,,,,,23.24,-0.207469,-0.021296,0011199999999100,1,100,12.3
61939,72504,2007/07/24 03:00:10,42.8367,5.9701,,,,,,,,,23.24,-0.214211,-0.018847,0011199999999100,3,100,12.3
61939,72504,2007/07/24 04:00:16,42.8360,5.9603,,,,,,,,,23.16,-0.221598,-0.021585,0011199999999100,3,100,12.3
61939,72504,2007/07/24 05:01:10,42.8360,5.9496,,,,,,,,,23.08,-0.238772,0,0011199999999100,1,100,12.3
61939,72504,2007/07/24 06:00:16,42.8366,5.9397,,,,,,,,,23,-0.227647,0.018815,0011199999999100,3,100,12.3
61939,72504,2007/07/24 07:00:16,42.8376,5.9303,,,,,,,,,22.92,-0.212905,0.030887,0011199999999100,1,100,12.3
61939,72504,2007/07/24 08:01:10,42.8378,5.9221,,,,,,,,,22.84,-0.182979,0.006086,0011199999999100,1,100,12.3
61939,72504,2007/07/24 09:00:16,42.8381,5.9141,,,,,,,,,22.68,-0.183953,0.009407,0011199999999100,1,100,12.3
61939,72504,2007/07/24 10:00:15,42.8376,5.9054,,,,,,,,,22.6,-0.197103,-0.015448,0011199999999100,1,100,12.3
61939,72504,2007/07/24 11:01:40,42.8369,5.8967,,,,,,,,,22.28,-0.192505,-0.021123,0011199999999100,1,100,12.3
61939,72504,2007/07/24 12:00:11,42.8363,5.8885,,,,,,,,,22.12,-0.190435,-0.019002,0011199999999100,3,100,12.3
61939,72504,2007/07/24 13:00:07,42.8355,5.8794,,,,,,,,,22.04,-0.206343,-0.024737,0011199999999100,4,100,12.3
61939,72504,2007/07/24 14:01:28,42.8353,5.8719,,,,,,,,,21.96,-0.166138,-0.006042,0011199999999100,5,100,12.3
61939,72504,2007/07/24 18:01:03,42.8345,5.8468,,,,,,,,,21.4,-0.142378,-0.006188,0011199999999100,1,100,12.3
61939,72504,2007/07/24 20:00:16,42.8348,5.8330,,,,,,,,,21.08,-0.157314,0.004664,0011199999999100,1,100,12.3
61939,72504,2007/07/24 21:00:10,42.8364,5.8262,,,,,,,,,20.92,-0.154277,0.049502,0011199999999100,1,100,12.2
61939,72504,2007/07/24 22:00:40,42.8374,5.8210,,,,,,,,,20.84,-0.116804,0.030632,0011199999999100,1,100,12.1
61939,72504,2007/07/24 23:00:22,42.8375,5.8166,,,,,,,,,20.76,-0.100158,0.003104,0011199999999100,1,100,12.3
61939,72504,2007/07/25 00:01:10,42.8371,5.8121,,,,,,,,,20.68,-0.100581,-0.012192,0011199999999100,1,100,12.3
61939,72504,2007/07/25 01:00:34,42.8368,5.8067,,,,,,,,,20.6,-0.123543,-0.00936,0011199999999100,1,100,12.3
61939,72504,2007/07/25 02:00:25,42.8368,5.8002,,,,,,,,,20.6,-0.147591,0,0011199999999100,3,100,12.3
61939,72504,2007/07/25 03:03:03,42.8374,5.7934,,,,,,,,,20.52,-0.147541,0.017753,0011199999999100,4,100,12.3
61939,72504,2007/07/25 04:00:20,42.8378,5.7869,,,,,,,,,20.52,-0.154202,0.012941,0011199999999100,5,100,12.3
61939,72504,2007/07/25 05:00:16,42.8387,5.7801,,,,,,,,,20.44,-0.154185,0.02783,0011199999999100,1,100,12.3
61939,72504,2007/07/25 06:01:09,42.8400,5.7738,,,,,,,,,20.44,-0.140616,0.039571,0011199999999100,1,100,12.3
61939,72504,2007/07/25 07:00:16,42.8411,5.7680,,,,,,,,,20.36,-0.133322,0.034484,0011199999999100,1,100,12.3
61939,72504,2007/07/25 08:01:34,42.8422,5.7623,,,,,,,,,20.36,-0.126355,0.033256,0011199999999100,1,100,12.3
61939,72504,2007/07/25 09:00:10,42.8435,5.7559,,,,,,,,,20.36,-0.148406,0.041113,0011199999999100,1,100,12.3
61939,72504,2007/07/25 10:00:12,42.8451,5.7500,,,,,,,,,20.28,-0.133542,0.049393,0011199999999100,1,100,12.3
61939,72504,2007/07/25 11:01:40,42.8466,5.7445,,,,,,,,,20.28,-0.121582,0.045226,0011199999999100,1,100,12.3
61939,72504,2007/07/25 12:00:23,42.8490,5.7390,,,,,,,,,20.28,-0.127273,0.07575,0011199999999100,3,100,12.3
61939,72504,2007/07/25 13:00:19,42.8512,5.7341,,,,,,,,,20.28,-0.111082,0.068028,0011199999999100,1,100,12.3
61939,72504,2007/07/25 14:02:07,42.8527,5.7297,,,,,,,,,20.28,-0.096732,0.044982,0011199999999100,4,100,12.3
61939,72504,2007/07/25 15:00:18,42.8537,5.7259,,,,,,,,,20.28,-0.088732,0.031852,0011199999999100,1,100,12.3
61939,72504,2007/07/25 16:01:10,42.8543,5.7218,,,,,,,,,20.28,-0.091516,0.018269,0011199999999100,1,100,12.3
61939,72504,2007/07/25 17:00:18,42.8545,5.7165,,,,,,,,,20.28,-0.121767,0.006268,0011199999999100,1,100,12.3
61939,72504,2007/07/25 18:01:10,42.8541,5.7107,,,,,,,,,20.28,-0.12946,-0.012179,0011199999999100,1,100,12.3
61939,72504,2007/07/25 19:00:16,42.8535,5.7038,,,,,,,,,20.28,-0.158618,-0.018815,0011199999999100,1,100,12.3
61939,72504,2007/07/25 20:00:12,42.8533,5.6967,,,,,,,,,20.28,-0.160948,-0.006184,0011199999999100,1,100,12.3
61939,72504,2007/07/25 21:00:16,42.8534,5.6892,,,,,,,,,20.2,-0.169638,0.003085,0011199999999100,1,100,12.3
61939,72504,2007/07/25 22:01:09,42.8538,5.6812,,,,,,,,,20.2,-0.178519,0.012176,0011199999999100,1,100,12.2
61939,72504,2007/07/25 23:00:11,42.8547,5.6732,,,,,,,,,20.2,-0.184112,0.028254,0011199999999100,1,100,12.2
61939,72504,2007/07/26 00:00:28,42.8557,5.6650,,,,,,,,,20.12,-0.184799,0.030742,0011199999999100,4,100,12.2
61939,72504,2007/07/26 01:00:35,42.8570,5.6571,,,,,,,,,20.12,-0.178528,0.040076,0011199999999100,6,100,12.2
61939,72504,2007/07/26 02:00:16,42.8584,5.6495,,,,,,,,,20.12,-0.172992,0.043472,0011199999999100,1,100,12.3
61939,72504,2007/07/26 03:00:39,42.8603,5.6420,,,,,,,,,20.12,-0.168732,0.058314,0011199999999100,1,100,12.3
61939,72504,2007/07/26 04:00:16,42.8619,5.6355,,,,,,,,,20.12,-0.148111,0.049738,0011199999999100,3,100,12.3
61939,72504,2007/07/26 05:00:39,42.8625,5.6293,,,,,,,,,20.12,-0.139479,0.018415,0011199999999100,3,100,12.3
61939,72504,2007/07/26 06:00:11,42.8628,5.6232,,,,,,,,,20.12,-0.139187,0.009339,0011199999999100,1,100,12.3
61939,72504,2007/07/26 07:00:10,42.8628,5.6167,,,,,,,,,20.12,-0.147201,0,0011199999999100,3,100,12.3
61939,72504,2007/07/26 08:00:40,42.8630,5.6101,,,,,,,,,20.28,-0.148189,0.006126,0011199999999100,1,100,12.3
61939,72504,2007/07/26 09:00:10,42.8627,5.6028,,,,,,,,,20.44,-0.166661,-0.009344,0011199999999100,4,100,12.3
61939,72504,2007/07/26 10:00:16,42.8621,5.5954,,,,,,,,,20.6,-0.167259,-0.018502,0011199999999100,5,100,12.3
61939,72504,2007/07/26 11:00:40,42.8617,5.5872,,,,,,,,,20.68,-0.184422,-0.012273,0011199999999100,1,98,12.3
61939,72504,2007/07/26 12:00:16,42.8614,5.5798,,,,,,,,,20.76,-0.168664,-0.009328,0011199999999100,1,100,12.3
61939,72504,2007/07/26 13:00:17,42.8611,5.5717,,,,,,,,,21.08,-0.183338,-0.009264,0011199999999100,5,85,12.3
61939,72504,2007/07/26 14:00:40,42.8609,5.5629,,,,,,,,,21.16,-0.197973,-0.006138,0011199999999100,5,47,12.3
61939,72504,2007/07/26 15:00:06,42.8606,5.5543,,,,,,,,,21.16,-0.196567,-0.009355,0011199999999100,5,47,12.3
61939,72504,2007/07/26 16:00:11,42.8611,5.5448,,,,,,,,,21.32,-0.214789,0.015422,0011199999999100,1,23,12.3
61939,72504,2007/07/26 17:00:40,42.8620,5.5362,,,,,,,,,21.32,-0.193152,0.027577,0011199999999100,5,66,12.3
61939,72504,2007/07/26 18:00:22,42.8628,5.5275,,,,,,,,,21.16,-0.19796,0.024834,0011199999999100,3,42,12.3
61939,72504,2007/07/26 20:00:11,42.8641,5.5104,,,,,,,,,21.08,-0.193867,0.020108,0011199999999100,1,14,12.2
61939,72504,2007/07/26 21:00:10,42.8645,5.5030,,,,,,,,,21,-0.167579,0.012358,0011199999999100,1,12,12.2
61939,72504,2007/07/26 22:00:40,42.8642,5.4960,,,,,,,,,20.92,-0.157167,-0.00919,0011199999999100,1,20,12.2
61939,72504,2007/07/26 23:00:15,42.8642,5.4893,,,,,,,,,20.92,-0.152746,0,0011199999999100,1,9,12.2
61939,72504,2007/07/27 00:00:12,42.8635,5.4830,,,,,,,,,20.84,-0.142749,-0.021639,0011199999999100,3,3,12.2
61939,72504,2007/07/27 01:00:40,42.8626,5.4748,,,,,,,,,20.84,-0.184215,-0.027584,0011199999999100,3,1,12.2
61939,72504,2007/07/27 02:00:07,42.8616,5.4666,,,,,,,,,20.92,-0.187368,-0.031173,0011199999999100,4,6,12.2
61939,72504,2007/07/27 03:00:40,42.8604,5.4584,,,,,,,,,21.08,-0.183967,-0.036728,0011199999999100,6,9,12.1
61939,72504,2007/07/27 04:00:16,42.8589,5.4496,,,,,,,,,21.16,-0.20058,-0.046642,0011199999999100,3,14,12.2
61939,72504,2007/07/27 05:00:10,42.8579,5.4413,,,,,,,,,21.16,-0.18824,-0.030939,0011199999999100,1,33,12.2
61939,72504,2007/07/27 06:00:36,42.8574,5.4335,,,,,,,,,21.24,-0.175341,-0.015333,0011199999999100,1,98,12.2
61939,72504,2007/07/27 07:00:16,42.8563,5.4256,,,,,,,,,21.16,-0.179873,-0.034166,0011199999999100,1,100,12.2
61939,72504,2007/07/27 08:00:11,42.8545,5.4185,,,,,,,,,21.24,-0.160987,-0.055675,0011199999999100,1,100,12.2
61939,72504,2007/07/27 09:00:17,42.8525,5.4100,,,,,,,,,21.24,-0.192149,-0.061672,0011199999999100,3,100,12.2
61939,72504,2007/07/27 10:01:34,42.8504,5.4013,,,,,,,,,21.24,-0.192879,-0.063505,0011199999999100,1,100,12.2
61939,72504,2007/07/27 11:00:16,42.8488,5.3928,,,,,,,,,21.24,-0.196744,-0.050514,0011199999999100,1,100,12.2
61939,72504,2007/07/27 12:00:16,42.8479,5.3840,,,,,,,,,21.4,-0.199279,-0.027799,0011199999999100,4,100,12.2
61939,72504,2007/07/27 13:00:16,42.8469,5.3757,,,,,,,,,21.56,-0.187959,-0.030887,0011199999999100,5,100,12.2
61939,72504,2007/07/27 14:00:40,42.8460,5.3669,,,,,,,,,21.56,-0.197965,-0.027615,0011199999999100,1,100,12.2
61939,72504,2007/07/27 15:00:13,42.8445,5.3589,,,,,,,,,21.72,-0.182541,-0.046681,0011199999999100,4,100,12.2
61939,72504,2007/07/27 16:01:04,42.8425,5.3518,,,,,,,,,21.72,-0.158548,-0.060912,0011199999999100,4,100,12.2
61939,72504,2007/07/27 17:00:10,42.8400,5.3445,,,,,,,,,21.8,-0.167848,-0.078395,0011199999999100,3,100,12.2
61939,72504,2007/07/27 18:00:16,42.8370,5.3373,,,,,,,,,21.8,-0.162801,-0.092508,0011199999999100,1,100,12.2
61939,72504,2007/07/27 19:00:10,42.8342,5.3297,,,,,,,,,21.72,-0.172428,-0.086629,0011199999999100,1,100,12.2
61939,72504,2007/07/27 20:00:40,42.8308,5.3213,,,,,,,,,21.72,-0.188697,-0.10415,0011199999999100,1,96,12.2
61939,72504,2007/07/27 21:00:16,42.8272,5.3130,,,,,,,,,21.72,-0.189277,-0.111941,0011199999999100,1,87,12.2
61939,72504,2007/07/27 22:00:35,42.8233,5.3027,,,,,,,,,21.64,-0.232109,-0.119829,0011199999999100,1,98,12.2
61939,72504,2007/07/27 23:00:11,42.8201,5.2916,,,,,,,,,21.64,-0.25316,-0.099503,0011199999999100,3,100,12.2
61939,72504,2007/07/28 00:00:10,42.8167,5.2810,,,,,,,,,21.56,-0.240224,-0.105047,0011199999999100,1,100,12.2